Nogales, AZ

6:04 AM MST on November 22, 2017 (GMT -0700)
Nogales International

Weather History for KOLS - January, 2013

Change the Weather History Date:

Friday, January 25, 2013

  Actual Average (KFHU) Record (KFHU)
Temperature  
Mean Temperature 58 °F -  
Max Temperature 72 °F 59 °F 77 °F (2000)
Min Temperature 45 °F 37 °F 26 °F (1990)
Degree Days  
Heating Degree Days 6    
Growing Degree Days 8 (Base 50)    
Moisture  
Dew Point 39 °F    
Average Humidity 47    
Maximum Humidity 71    
Minimum Humidity 29    
Precipitation  
Precipitation 0.00 in - - ()
Sea Level Pressure  
Sea Level Pressure 30.03 in    
Wind  
Wind Speed 2 mph (SSE)    
Max Wind Speed 12 mph    
Max Gust Speed -    
Visibility 10 miles    
Events      
Averages and records for this station are not official NWS values.
T = Trace of Precipitation, MM = Missing Value Source: NWS Daily Summary

Daily Weather History Graph

Daily Weather History Graph

Search for Another Location

Airport or City:

Trip Planner

Search our weather history database for the weather conditions in past years. The results will help you decide how hot, cold, wet, or windy it might be!

Date:

Astronomy

Jan. 25, 2013 Rise Set
Actual Time 7:19 AM MST 5:52 PM MST
Civil Twilight 6:53 AM MST 6:18 PM MST
Nautical Twilight 6:24 AM MST 6:47 PM MST
Astronomical Twilight 5:55 AM MST 7:16 PM MST
Moon 4:52 PM MST (1/25) 6:01 AM MST (1/25)
Length of Visible Light 11h 24m
Length of Day
10h 32m
Waxing Gibbous, 98% of the Moon is Illuminated
Jan 25
Waxing Gibbous
Jan 26
Full
Feb 3
Last Quarter
Feb 10
New
Feb 17
First Quarter

Hourly Weather History & Observations

Time (MST) Temp. Windchill Dew Point Humidity Pressure Visibility Wind Dir Wind Speed Gust Speed Precip Events Conditions
12:54 AM 54.0 °F - 39.9 °F 59% 30.12 in 10.0 mi Calm Calm - 0.00 in   Clear
1:54 AM 53.1 °F - 39.9 °F 61% 30.11 in 10.0 mi Calm Calm - N/A   Unknown
2:54 AM 53.1 °F - 37.9 °F 57% 30.07 in 10.0 mi East 3.5 mph - N/A   Clear
3:54 AM 52.0 °F - 39.0 °F 61% 30.09 in 10.0 mi Calm Calm - N/A   Clear
4:54 AM 46.9 °F - 37.0 °F 68% 30.09 in 10.0 mi Calm Calm - N/A   Clear
5:54 AM 46.0 °F - 37.0 °F 71% 30.10 in 10.0 mi Calm Calm - N/A   Clear
6:54 AM 45.0 °F 43.5 °F 36.0 °F 71% 30.12 in 10.0 mi NE 3.5 mph - N/A   Clear
7:54 AM 48.0 °F - 37.0 °F 66% 30.12 in 10.0 mi East 5.8 mph - N/A   Clear
8:54 AM 54.0 °F - 39.0 °F 57% 30.11 in 10.0 mi Calm Calm - N/A   Clear
9:54 AM 62.1 °F - 37.9 °F 41% 30.10 in 10.0 mi Calm Calm - N/A   Clear
10:54 AM 66.0 °F - 37.0 °F 34% 30.09 in 10.0 mi Calm Calm - N/A   Clear
11:54 AM 70.0 °F - 37.9 °F 31% 30.05 in 10.0 mi Calm Calm - N/A   Clear
12:54 PM 71.1 °F - 37.9 °F 30% 30.01 in 10.0 mi WNW 5.8 mph - N/A   Clear
1:54 PM 72.0 °F - 39.0 °F 30% 29.98 in 10.0 mi Variable 3.5 mph - N/A   Partly Cloudy
2:54 PM 72.0 °F - 39.0 °F 30% 29.96 in 10.0 mi Calm Calm - N/A   Partly Cloudy
3:54 PM 72.0 °F - 37.9 °F 29% 29.95 in 10.0 mi South 5.8 mph - N/A   Mostly Cloudy
4:54 PM 70.0 °F - 39.0 °F 32% 29.95 in 10.0 mi SSW 3.5 mph - N/A   Mostly Cloudy
5:54 PM 66.9 °F - 37.9 °F 34% 29.96 in 10.0 mi SSW 3.5 mph - N/A   Scattered Clouds
6:54 PM 66.0 °F - 37.9 °F 36% 29.99 in 10.0 mi SSE 3.5 mph - N/A   Overcast
7:54 PM 64.9 °F - 37.9 °F 37% 29.98 in 10.0 mi SSE 3.5 mph - N/A   Overcast
8:54 PM 64.0 °F - 39.0 °F 40% 29.97 in 10.0 mi South 8.1 mph - N/A   Mostly Cloudy
9:54 PM 64.0 °F - 41.0 °F 43% 29.96 in 10.0 mi South 8.1 mph - N/A   Overcast
10:54 PM 60.1 °F - 45.0 °F 57% 29.95 in 10.0 mi SE 10.4 mph - N/A   Mostly Cloudy
11:54 PM 60.1 °F - 46.9 °F 62% 29.93 in 10.0 mi SSE 11.5 mph - N/A   Overcast